Hourly Weather Saint-Pierre i Miquelon

Today, 1 October, Thursday

Time Temperature Precipitation Wind Pressure Humidity
00:00 +21°C° 0.4 mm 12 mps 760 mmHg 93%
01:00 +21°C° 0.4 mm 12 mps 760 mmHg 94%
02:00 +21°C° 0.4 mm 12 mps 760 mmHg 95%
03:00 +21°C° 3.9 mm 11 mps 760 mmHg 96%
04:00 +21°C° 3.9 mm 10 mps 760 mmHg 96%
05:00 +19°C° 3.9 mm 9 mps 760 mmHg 96%
06:00 +20°C° 1.9 mm 8 mps 760 mmHg 97%
07:00 +20°C° 1.9 mm 7 mps 761 mmHg 97%
08:00 +19°C° 1.9 mm 6 mps 761 mmHg 97%
09:00 +19°C° 0.4 mm 5 mps 761 mmHg 96%
10:00 +19°C° 0.4 mm 5 mps 761 mmHg 95%
11:00 +19°C° 0.4 mm 4 mps 761 mmHg 94%
12:00 +19°C° 0.1 mm 5 mps 761 mmHg 93%
13:00 +19°C° 0.1 mm 5 mps 761 mmHg 91%
14:00 +20°C° 0.1 mm 5 mps 761 mmHg 90%
15:00 +19°C° 0 mm 5 mps 761 mmHg 91%
16:00 +17°C° 0 mm 5 mps 761 mmHg 93%
17:00 +17°C° 0 mm 5 mps 762 mmHg 94%
18:00 +16°C° 0 mm 5 mps 762 mmHg 95%
19:00 +17°C° 0 mm 4 mps 762 mmHg 96%
20:00 +15°C° 0 mm 4 mps 763 mmHg 97%
21:00 +15°C° 0 mm 4 mps 763 mmHg 96%
22:00 +14°C° 0 mm 4 mps 763 mmHg 96%
23:00 +14°C° 0 mm 4 mps 763 mmHg 95%

Tomorrow, 2 October, Friday

Time Temperature Precipitation Wind Pressure Humidity
00:00 +14°C° 0 mm 4 mps 763 mmHg 94%
01:00 +14°C° 0 mm 3 mps 764 mmHg 93%
02:00 +13°C° 0 mm 3 mps 764 mmHg 92%
03:00 +14°C° 0 mm 2 mps 764 mmHg 91%
04:00 +14°C° 0 mm 2 mps 764 mmHg 90%
05:00 +14°C° 0 mm 1 mps 764 mmHg 90%
06:00 +15°C° 0 mm 2 mps 765 mmHg 87%
07:00 +16°C° 0 mm 2 mps 765 mmHg 85%
08:00 +17°C° 0 mm 2 mps 766 mmHg 82%
09:00 +18°C° 0 mm 2 mps 765 mmHg 80%
10:00 +18°C° 0 mm 2 mps 765 mmHg 79%
11:00 +19°C° 0 mm 2 mps 765 mmHg 77%
12:00 +19°C° 0 mm 2 mps 765 mmHg 76%
13:00 +19°C° 0 mm 2 mps 765 mmHg 76%
14:00 +19°C° 0 mm 2 mps 765 mmHg 75%
15:00 +19°C° 0 mm 2 mps 765 mmHg 80%
16:00 +18°C° 0 mm 2 mps 765 mmHg 85%
17:00 +17°C° 0 mm 2 mps 765 mmHg 89%
18:00 +17°C° 0.5 mm 3 mps 765 mmHg 92%
19:00 +17°C° 0.5 mm 4 mps 765 mmHg 95%
20:00 +17°C° 0.5 mm 4 mps 765 mmHg 98%
21:00 +17°C° 1.3 mm 4 mps 764 mmHg 96%
22:00 +18°C° 1.3 mm 3 mps 763 mmHg 97%
23:00 +19°C° 1.3 mm 3 mps 763 mmHg 98%

Day after tomorrow, 3 October, Saturday

Time Temperature Precipitation Wind Pressure Humidity
00:00 +19°C° 1 mm 4 mps 762 mmHg 98%
01:00 +19°C° 1 mm 4 mps 762 mmHg 98%
02:00 +19°C° 1 mm 5 mps 762 mmHg 97%
03:00 +19°C° 0.7 mm 5 mps 762 mmHg 98%
04:00 +19°C° 0.7 mm 5 mps 761 mmHg 98%
05:00 +19°C° 0.7 mm 4 mps 761 mmHg 98%
06:00 +19°C° 0.2 mm 5 mps 761 mmHg 97%
07:00 +20°C° 0.2 mm 5 mps 761 mmHg 96%
08:00 +20°C° 0.2 mm 5 mps 761 mmHg 95%
09:00 +20°C° 0 mm 6 mps 761 mmHg 94%
10:00 +20°C° 0 mm 7 mps 761 mmHg 92%
11:00 +20°C° 0 mm 7 mps 761 mmHg 91%
12:00 +18°C° 0 mm 7 mps 761 mmHg 87%
13:00 +19°C° 0 mm 6 mps 761 mmHg 84%
14:00 +17°C° 0 mm 5 mps 761 mmHg 81%
15:00 +16°C° 0 mm 5 mps 761 mmHg 84%
16:00 +15°C° 0 mm 5 mps 761 mmHg 87%
17:00 +14°C° 0 mm 5 mps 762 mmHg 90%
18:00 +14°C° 0 mm 6 mps 762 mmHg 90%
19:00 +12°C° 0 mm 7 mps 762 mmHg 90%
20:00 +12°C° 0 mm 8 mps 763 mmHg 89%
21:00 +12°C° 0 mm 7 mps 763 mmHg 89%
22:00 +12°C° 0 mm 7 mps 763 mmHg 89%
23:00 +13°C° 0 mm 6 mps 763 mmHg 89%

4 October, Sunday

Time Temperature Precipitation Wind Pressure Humidity
00:00 +11°C° 0 mm 6 mps 763 mmHg 90%
01:00 +11°C° 0 mm 6 mps 763 mmHg 91%
02:00 +10°C° 0 mm 6 mps 763 mmHg 93%
03:00 +10°C° 0 mm 6 mps 764 mmHg 92%
04:00 +10°C° 0 mm 6 mps 764 mmHg 92%
05:00 +9°C° 0 mm 5 mps 765 mmHg 91%
06:00 +10°C° 0 mm 5 mps 765 mmHg 88%
07:00 +12°C° 0 mm 5 mps 765 mmHg 84%
08:00 +12°C° 0 mm 5 mps 766 mmHg 81%
09:00 +13°C° 0 mm 5 mps 766 mmHg 78%
10:00 +14°C° 0 mm 4 mps 766 mmHg 76%
11:00 +14°C° 0 mm 3 mps 766 mmHg 73%
12:00 +14°C° 0 mm 3 mps 766 mmHg 72%
13:00 +16°C° 0 mm 3 mps 766 mmHg 71%
14:00 +16°C° 0 mm 3 mps 766 mmHg 70%
15:00 +14°C° 0 mm 3 mps 767 mmHg 73%
16:00 +13°C° 0 mm 3 mps 767 mmHg 76%
17:00 +12°C° 0 mm 3 mps 767 mmHg 80%
18:00 +11°C° 0 mm 3 mps 767 mmHg 81%
19:00 +12°C° 0 mm 2 mps 768 mmHg 83%
20:00 +12°C° 0 mm 2 mps 768 mmHg 84%
21:00 +12°C° 0 mm 2 mps 768 mmHg 84%
22:00 +12°C° 0 mm 2 mps 768 mmHg 83%
23:00 +11°C° 0 mm 1 mps 768 mmHg 83%

5 October, Monday

Time Temperature Precipitation Wind Pressure Humidity
00:00 +10°C° 0 mm 2 mps 768 mmHg 84%
01:00 +10°C° 0 mm 2 mps 768 mmHg 84%
02:00 +9°C° 0 mm 3 mps 768 mmHg 85%
03:00 +9°C° 0 mm 3 mps 768 mmHg 88%
04:00 +7°C° 0 mm 4 mps 768 mmHg 91%
05:00 +7°C° 0 mm 4 mps 768 mmHg 95%
06:00 +8°C° 0 mm 5 mps 768 mmHg 90%
07:00 +9°C° 0 mm 5 mps 768 mmHg 86%
08:00 +10°C° 0 mm 6 mps 768 mmHg 82%
09:00 +10°C° 0 mm 6 mps 767 mmHg 78%
10:00 +11°C° 0 mm 6 mps 767 mmHg 75%
11:00 +11°C° 0 mm 6 mps 766 mmHg 72%
12:00 +12°C° 0 mm 5 mps 766 mmHg 72%
13:00 +12°C° 0 mm 5 mps 765 mmHg 72%
14:00 +12°C° 0 mm 4 mps 765 mmHg 73%
15:00 +12°C° 0 mm 4 mps 765 mmHg 76%
16:00 +11°C° 0 mm 4 mps 764 mmHg 80%
17:00 +11°C° 0 mm 3 mps 764 mmHg 83%
18:00 +11°C° 0.1 mm 3 mps 764 mmHg 86%
19:00 +10°C° 0.1 mm 3 mps 764 mmHg 89%
20:00 +10°C° 0.1 mm 3 mps 763 mmHg 91%
21:00 +10°C° 0 mm 2 mps 763 mmHg 91%
22:00 +10°C° 0 mm 2 mps 763 mmHg 90%
23:00 +11°C° 0 mm 1 mps 762 mmHg 90%

6 October, Tuesday

Time Temperature Precipitation Wind Pressure Humidity
00:00 +9°C° 0 mm 2 mps 762 mmHg 90%
01:00 +9°C° 0 mm 2 mps 762 mmHg 90%
02:00 +8°C° 0 mm 3 mps 761 mmHg 90%
03:00 +8°C° 0 mm 3 mps 761 mmHg 90%
04:00 +8°C° 0 mm 3 mps 762 mmHg 90%
05:00 +7°C° 0 mm 4 mps 762 mmHg 90%
06:00 +8°C° 0.2 mm 6 mps 762 mmHg 89%
07:00 +10°C° 0.2 mm 8 mps 762 mmHg 88%
08:00 +11°C° 0.2 mm 9 mps 763 mmHg 87%
09:00 +11°C° 0 mm 9 mps 763 mmHg 81%
10:00 +11°C° 0 mm 9 mps 763 mmHg 76%
11:00 +11°C° 0 mm 9 mps 763 mmHg 70%
12:00 +11°C° 0 mm 9 mps 764 mmHg 69%
13:00 +11°C° 0 mm 10 mps 764 mmHg 67%
14:00 +11°C° 0 mm 10 mps 764 mmHg 66%
15:00 +11°C° 0 mm 9 mps 764 mmHg 68%
16:00 +10°C° 0 mm 9 mps 765 mmHg 69%
17:00 +9°C° 0 mm 8 mps 765 mmHg 71%
18:00 +9°C° 0 mm 8 mps 766 mmHg 72%
19:00 +8°C° 0 mm 7 mps 766 mmHg 74%
20:00 +8°C° 0 mm 7 mps 767 mmHg 76%
21:00 +7°C° 0 mm 6 mps 767 mmHg 77%
22:00 +7°C° 0 mm 5 mps 767 mmHg 78%
23:00 +6°C° 0 mm 4 mps 768 mmHg 80%
Show more